This demonstration page uses our WeatherBlox Daily Observations layout. Learn more.

Left ArrowRight Arrow

Hourly Observations for December 13, 2020

Temp ( °F °C ) Dew Point ( °F °C ) Humidity (%) Winds ( mph kmh ) Pressure ( in mb ) Visibility ( mi km ) Precip ( " mm )
12:15 am 00:15 Cloudy with Mist and Fog 21 -6 20 -6.7 95 95 N N/A 30.31 1027 4 6 N/A
12:35 am 00:35 Cloudy with Mist and Fog 21 -6 20 -6.7 95 95 N N/A 30.32 1027 5 8 N/A
12:55 am 00:55 Cloudy with Mist and Fog 21 -5.9 20 -6.6 95 95 WNW 3 6 30.32 1027 5 8 N/A
1:15 am 01:15 Cloudy with Mist and Fog 21 -6 20 -6.7 95 95 WNW 5 7 30.32 1027 5 8 N/A
1:35 am 01:35 Cloudy with Mist and Fog 21 -6 20 -6.7 95 95 WNW 5 7 30.33 1027 5 8 N/A
1:55 am 01:55 Cloudy with Mist and Fog 21 -5.9 20 -6.6 95 95 NW 5 7 30.34 1028 5 8 N/A
2:15 am 02:15 Cloudy with Mist and Fog 22 -5.7 20 -6.5 94 94 NW 3 6 30.34 1027 5 8 N/A
2:35 am 02:35 Cloudy with Mist and Fog 22 -5.6 20 -6.5 93 93 N N/A 30.34 1027 4 6 N/A
2:55 am 02:55 Cloudy with Mist and Fog 22 -5.5 21 -6.3 94 94 NW 5 7 30.33 1027 4 6 N/A
3:15 am 03:15 Cloudy with Mist and Fog 22 -5.6 20 -6.4 94 94 NNW 3 6 30.33 1027 4 6 N/A
3:35 am 03:35 Cloudy 22 -5.5 20 -6.4 93 93 N N/A 30.33 1027 7 11 N/A
3:55 am 03:55 Cloudy 22 -5.7 20 -6.5 94 94 NNW 3 6 30.32 1027 7 11 N/A
4:15 am 04:15 Cloudy with Mist and Fog 22 -5.8 20 -6.6 94 94 N N/A 30.32 1027 4 6 N/A
4:35 am 04:35 Cloudy with Mist and Fog 21 -6 20 -6.7 95 95 N N/A 30.33 1027 3 5 N/A
4:55 am 04:55 Cloudy with Mist and Fog 21 -6 20 -6.8 94 94 WNW 3 6 30.32 1027 4 6 N/A
5:15 am 05:15 Cloudy with Mist and Fog 21 -6 20 -6.8 94 94 NW 7 11 30.33 1027 2 3 N/A
5:35 am 05:35 Cloudy with Mist and Fog N/A N/A N/A W 5 7 N/A 2 3 N/A
5:55 am 05:55 Cloudy with Mist and Fog N/A N/A N/A W 7 11 N/A 1 1 N/A
6:15 am 06:15 Cloudy with Mist and Fog N/A N/A N/A W 7 11 N/A 1 1 N/A
6:35 am 06:35 Cloudy with Fog N/A N/A N/A W 8 13 N/A 1 1 N/A
6:55 am 06:55 Cloudy with Fog N/A N/A N/A W 6 9 N/A 1 1 N/A
7:15 am 07:15 Cloudy with Mist and Fog N/A N/A N/A W 5 7 N/A 1 1 N/A
7:35 am 07:35 Cloudy with Mist and Fog N/A N/A N/A W 6 9 N/A 1 2 N/A
7:55 am 07:55 Mostly Cloudy with Mist and Fog N/A N/A N/A W 7 11 N/A 3 5 N/A
8:15 am 08:15 Hazy N/A N/A N/A W 7 11 N/A 5 8 N/A
8:35 am 08:35 Mostly Cloudy with Mist and Fog N/A N/A N/A W 7 11 N/A 2 3 N/A
8:55 am 08:55 Partly Cloudy N/A N/A N/A W 7 11 N/A 10 16 N/A
9:15 am 09:15 Sunny N/A N/A N/A W 7 11 N/A 10 16 N/A
9:35 am 09:35 Sunny N/A N/A N/A WNW 7 11 N/A 10 16 N/A
9:55 am 09:55 Sunny N/A N/A N/A WNW 7 11 N/A 10 16 N/A
10:15 am 10:15 Sunny N/A N/A N/A WNW 7 11 N/A 10 16 N/A
10:35 am 10:35 Sunny N/A N/A N/A WNW 9 15 N/A 10 16 N/A
10:55 am 10:55 Sunny 23 -5 22 -5.7 95 95 NW 8 13 30.40 1030 10 16 N/A
11:15 am 11:15 Sunny 24 -4.4 23 -5.2 94 94 NW 10 17 30.39 1029 10 16 N/A
11:35 am 11:35 Sunny 26 -3.2 22 -5.6 84 84 NW 10 17 30.38 1029 10 16 N/A
11:55 am 11:55 Sunny 27 -2.7 22 -5.7 80 80 NNW 9 15 30.37 1029 10 16 N/A
12:15 pm 12:15 Sunny 28 -2.2 22 -5.5 78 78 NNW 12 19 30.37 1028 10 16 N/A
12:35 pm 12:35 Sunny 28 -2.1 22 -5.5 78 78 NNW 8 13 30.35 1028 10 16 N/A
12:55 pm 12:55 Sunny 28 -2 23 -5.2 79 79 NNW 7 11 30.35 1028 10 16 N/A
1:15 pm 13:15 Sunny 29 -1.5 23 -5 77 77 NNW 6 9 30.33 1027 10 16 N/A
1:35 pm 13:35 Sunny 30 -1 24 -4.6 77 77 N 3 6 30.32 1027 10 16 N/A
1:55 pm 13:55 Sunny 30 -1.1 23 -4.8 76 76 N 3 6 30.32 1027 10 16 N/A
2:15 pm 14:15 Sunny 31 -0.8 23 -4.9 74 74 NNW 5 7 30.31 1027 10 16 N/A
2:35 pm 14:35 Sunny 31 -0.6 23 -5 72 72 NW 3 6 30.31 1026 10 16 N/A
2:55 pm 14:55 Sunny 31 -0.7 23 -5 73 73 NW 5 7 30.31 1026 10 16 N/A
3:15 pm 15:15 Sunny 31 -0.8 23 -5 74 74 W 3 6 30.32 1027 10 16 N/A
3:35 pm 15:35 Sunny 30 -1 23 -5 75 75 WNW 3 6 30.34 1027 10 16 N/A
3:55 pm 15:55 Sunny 30 -1.1 23 -5.1 75 75 N N/A 30.33 1027 10 16 N/A
4:15 pm 16:15 Sunny 30 -1 23 -5 75 75 N N/A 30.32 1027 10 16 N/A
4:35 pm 16:35 Sunny 29 -1.4 22 -5.5 74 74 W 3 6 30.32 1027 10 16 N/A
4:55 pm 16:55 Sunny 27 -3 21 -6.1 79 79 W 5 7 30.33 1027 10 16 N/A
5:15 pm 17:15 Clear 26 -3.6 20 -6.8 79 79 W 5 7 30.35 1028 10 16 N/A
5:35 pm 17:35 Clear 24 -4.4 19 -7.2 81 81 W 6 9 30.37 1028 10 16 N/A
5:55 pm 17:55 Clear 24 -4.2 20 -6.7 83 83 W 3 6 30.36 1028 10 16 N/A
6:15 pm 18:15 Clear 25 -4.1 20 -6.8 82 82 N N/A 30.36 1028 10 16 N/A
6:35 pm 18:35 Clear 24 -4.3 20 -6.8 83 83 WSW 3 6 30.37 1028 10 16 N/A
6:55 pm 18:55 Clear 24 -4.6 19 -7.2 82 82 W 5 7 30.37 1028 10 16 N/A
7:15 pm 19:15 Clear 24 -4.2 19 -7.1 80 80 W 3 6 30.36 1028 10 16 N/A
7:35 pm 19:35 Clear 24 -4.2 19 -7.3 79 79 W 5 7 30.36 1028 10 16 N/A
7:55 pm 19:55 Clear 24 -4.7 19 -7.5 81 81 W 3 6 30.37 1028 10 16 N/A
8:15 pm 20:15 Clear 18 -7.6 15 -9.6 86 86 N N/A 30.40 1029 10 16 N/A
8:35 pm 20:35 Clear 15 -9.5 11 -11.8 84 84 N N/A 30.42 1030 10 16 N/A
8:55 pm 20:55 Clear 15 -9.3 12 -11.1 87 87 SSW 3 6 30.42 1030 10 16 N/A
9:15 pm 21:15 Clear 19 -7.5 16 -9 89 89 N N/A 30.39 1029 10 16 N/A
9:35 pm 21:35 Clear 20 -6.7 17 -8.4 88 88 N N/A 30.38 1029 10 16 N/A
9:55 pm 21:55 Clear 15 -9.2 13 -10.7 89 89 N N/A 30.42 1030 10 16 N/A
10:15 pm 22:15 Clear 15 -9.4 13 -10.6 91 91 N N/A 30.43 1030 10 16 N/A
10:35 pm 22:35 Clear 11 -11.5 9 -12.7 91 91 N N/A 30.45 1031 10 16 N/A
10:55 pm 22:55 Clear 9 -12.6 7 -14.1 89 89 N N/A 30.46 1032 10 16 N/A
11:15 pm 23:15 Clear 12 -11 10 -12.1 92 92 SSW 5 7 30.45 1031 10 16 N/A
11:35 pm 23:35 Clear 13 -10.7 10 -12.1 90 90 SW 3 6 30.43 1031 10 16 N/A
11:55 pm 23:55 Clear 13 -10.4 11 -11.7 90 90 SW 5 7 30.43 1030 10 16 N/A

Powered by AerisWeather